Farmingdale, NY

2:03 PM EDT on June 22, 2018 (GMT -0400)
Republic

Weather History for KFRG - September, 2017

Change the Weather History Date:

Friday, September 8, 2017

  Actual Average Record
Temperature  
Mean Temperature 63 °F -  
Max Temperature 73 °F 75 °F 91 °F (2015)
Min Temperature 55 °F 61 °F 55 °F (2000)
Degree Days  
Heating Degree Days 2    
Growing Degree Days 13 (Base 50)    
Moisture  
Dew Point 49 °F    
Average Humidity 60    
Maximum Humidity 87    
Minimum Humidity 42    
Precipitation  
Precipitation 0.00 in - - ()
Sea Level Pressure  
Sea Level Pressure 30.09 in    
Wind  
Wind Speed 7 mph (WNW)    
Max Wind Speed 14 mph    
Max Gust Speed 20 mph    
Visibility 10 miles    
Events      
Averages and records for this station are not official NWS values.
T = Trace of Precipitation, MM = Missing Value Source: NWS Daily Summary

Daily Weather History Graph

Daily Weather History Graph

Search for Another Location

Airport or City:

Astronomy

Sep. 08, 2017 Rise Set
Actual Time 6:27 AM EDT 7:13 PM EDT
Civil Twilight 5:59 AM EDT 7:41 PM EDT
Nautical Twilight 5:27 AM EDT 8:14 PM EDT
Astronomical Twilight 4:53 AM EDT 8:48 PM EDT
Moon 8:51 PM EDT (9/8) 8:46 AM EDT (9/8)
Length of Visible Light 13h 41m
Length of Day
12h 46m
Waning Gibbous, 93% of the Moon is Illuminated
Sep 8
Waning Gibbous
Sep 13
Last Quarter
Sep 20
New
Sep 27
First Quarter
Oct 5
Full

Hourly Weather History & Observations

Time (EDT) Temp. Dew Point Humidity Pressure Visibility Wind Dir Wind Speed Gust Speed Precip Events Conditions
12:53 AM 62.1 °F 48.0 °F 60% 30.03 in 10.0 mi West 6.9 mph - N/A   Clear
1:53 AM 59.0 °F 48.9 °F 69% 30.04 in 10.0 mi SW 5.8 mph - N/A   Clear
2:53 AM 57.9 °F 50.0 °F 75% 30.04 in 10.0 mi West 6.9 mph - N/A   Clear
3:53 AM 57.9 °F 50.0 °F 75% 30.05 in 10.0 mi West 4.6 mph - N/A   Clear
4:53 AM 55.9 °F 50.0 °F 80% 30.05 in 10.0 mi WSW 5.8 mph - N/A   Clear
5:53 AM 55.9 °F 51.1 °F 84% 30.06 in 10.0 mi WSW 3.5 mph - N/A   Clear
6:53 AM 55.9 °F 52.0 °F 87% 30.07 in 10.0 mi West 4.6 mph - N/A   Clear
7:53 AM 61.0 °F 52.0 °F 72% 30.09 in 10.0 mi West 10.4 mph - N/A   Clear
8:53 AM 64.0 °F 52.0 °F 65% 30.09 in 10.0 mi West 9.2 mph - N/A   Clear
9:53 AM 66.9 °F 48.9 °F 52% 30.10 in 10.0 mi WNW 10.4 mph - N/A   Clear
10:53 AM 69.1 °F 48.0 °F 47% 30.10 in 10.0 mi WNW 9.2 mph 19.6 mph N/A   Clear
11:53 AM 70.0 °F 46.9 °F 44% 30.09 in 10.0 mi WNW 12.7 mph - N/A   Partly Cloudy
12:53 PM 70.0 °F 48.0 °F 46% 30.09 in 10.0 mi WNW 6.9 mph 19.6 mph N/A   Clear
1:53 PM 71.1 °F 48.0 °F 44% 30.09 in 10.0 mi West 10.4 mph - N/A   Mostly Cloudy
2:53 PM 71.1 °F 48.0 °F 44% 30.09 in 10.0 mi WNW 13.8 mph 19.6 mph N/A   Mostly Cloudy
3:53 PM 71.1 °F 50.0 °F 47% 30.09 in 10.0 mi WNW 10.4 mph - N/A   Mostly Cloudy
4:53 PM 70.0 °F 46.9 °F 44% 30.09 in 10.0 mi West 11.5 mph - N/A   Partly Cloudy
5:53 PM 71.1 °F 46.9 °F 42% 30.10 in 10.0 mi NW 10.4 mph - N/A   Partly Cloudy
6:53 PM 69.1 °F 48.0 °F 47% 30.10 in 10.0 mi NNW 8.1 mph - N/A   Clear
7:53 PM 66.0 °F 48.9 °F 54% 30.13 in 10.0 mi NNW 5.8 mph - N/A   Clear
8:53 PM 64.0 °F 50.0 °F 60% 30.15 in 10.0 mi NNW 4.6 mph - N/A   Clear
9:53 PM 63.0 °F 50.0 °F 63% 30.15 in 10.0 mi NNW 5.8 mph - N/A   Clear
10:53 PM 61.0 °F 51.1 °F 70% 30.17 in 10.0 mi NNW 6.9 mph - N/A   Clear
11:53 PM 60.1 °F 50.0 °F 69% 30.17 in 10.0 mi NW 4.6 mph - N/A   Clear